Del Bajio, Mexico

4:58 PM CDT on April 21, 2018 (GMT -0500)
De Guanajuato International

Weather History for MMLO - May, 2013

Change the Weather History Date:

Friday, May 24, 2013

  Actual Average Record
Temperature  
Mean Temperature 76 °F -  
Max Temperature 91 °F 87 °F 100 °F (2011)
Min Temperature 60 °F 57 °F 51 °F (1999)
Cooling Degree Days 10    
Growing Degree Days 26 (Base 50)    
Moisture  
Dew Point 44 °F    
Average Humidity 37    
Maximum Humidity 59    
Minimum Humidity 17    
Precipitation  
Precipitation 0.00 in - - ()
Sea Level Pressure  
Sea Level Pressure 30.08 in    
Wind  
Wind Speed 6 mph ()    
Max Wind Speed 23 mph    
Max Gust Speed 34 mph    
Visibility 8.3 miles    
Events      
Averages and records for this station are not official NWS values.
T = Trace of Precipitation, MM = Missing Value Source: Averaged Metar Reports

Daily Weather History Graph

Daily Weather History Graph

Search for Another Location

Airport or City:

Astronomy

May. 24, 2013 Rise Set
Actual Time 7:05 AM CDT 8:20 PM CDT
Civil Twilight 6:41 AM CDT 8:44 PM CDT
Nautical Twilight 6:12 AM CDT 9:13 PM CDT
Astronomical Twilight 5:42 AM CDT 9:43 PM CDT
Moon 8:07 PM CDT (5/24) 6:33 AM CDT (5/24)
Length of Visible Light 14h 03m
Length of Day
13h 15m
Full, 100% of the Moon is Illuminated
May 24
Full
May 24
Full
May 31
Last Quarter
Jun 8
New
Jun 16
First Quarter

Hourly Weather History & Observations

Time (CDT) Temp. Dew Point Humidity Pressure Visibility Wind Dir Wind Speed Gust Speed Precip Events Conditions
12:50 AM 66.2 °F 44.6 °F 46% 29.78 in 8.0 mi SE 9.2 mph - N/A   Mostly Cloudy
1:46 AM 66.2 °F 46.4 °F 49% 30.24 in 8.0 mi ENE 6.9 mph - N/A   Mostly Cloudy
3:46 AM 62.6 °F 44.6 °F 52% 29.73 in 8.0 mi Calm Calm - N/A   Scattered Clouds
4:46 AM 60.8 °F 44.6 °F 55% 30.20 in 6.0 mi WSW 5.8 mph - N/A   Scattered Clouds
5:52 AM 60.8 °F 46.4 °F 59% 30.21 in 6.0 mi NE 5.8 mph - N/A   Scattered Clouds
6:50 AM 62.6 °F 48.2 °F 59% 29.83 in 6.0 mi Calm Calm - N/A   Scattered Clouds
7:49 AM 64.4 °F 46.4 °F 52% 30.24 in 9.0 mi Calm Calm - N/A   Partly Cloudy
8:55 AM 71.6 °F 48.2 °F 43% 30.27 in 9.0 mi Calm Calm - N/A   Partly Cloudy
9:42 AM 75.2 °F 46.4 °F 36% 29.79 in 9.0 mi Calm Calm - N/A   Clear
10:46 AM 80.6 °F 44.6 °F 28% 30.27 in 9.0 mi SSE 4.6 mph - N/A   Partly Cloudy
11:48 AM 84.2 °F 42.8 °F 23% 30.27 in 9.0 mi SE 4.6 mph - N/A   Scattered Clouds
1:41 PM 89.6 °F 44.6 °F 21% 30.21 in 9.0 mi SW 9.2 mph - N/A   Scattered Clouds
2:43 PM 91.4 °F 44.6 °F 20% 30.18 in 10.0 mi ESE 4.6 mph - N/A   Mostly Cloudy
2:53 PM 87.8 °F 42.8 °F 21% 30.18 in 3.0 mi ENE 13.8 mph 25.3 mph N/A   Widespread Dust
3:41 PM 87.8 °F 37.4 °F 17% 29.71 in 10.0 mi ESE 17.3 mph 28.8 mph N/A   Mostly Cloudy
4:43 PM 84.2 °F 42.8 °F 23% 30.15 in 10.0 mi North 12.7 mph 24.2 mph N/A   Overcast
5:45 PM 80.6 °F 44.6 °F 28% 30.15 in 10.0 mi NNE 15.0 mph 26.5 mph N/A   Overcast
6:45 PM 71.6 °F 44.6 °F 38% 29.81 in 10.0 mi NE 23.0 mph 34.5 mph N/A   Overcast
7:45 PM 71.6 °F 42.8 °F 35% 30.18 in 10.0 mi NNE 16.1 mph - N/A   Overcast
8:43 PM 73.4 °F 42.8 °F 33% 30.21 in 8.0 mi NNE 10.4 mph - N/A   Overcast
9:42 PM 71.6 °F 42.8 °F 35% 29.77 in 8.0 mi NW 3.5 mph - N/A   Overcast
10:43 PM 71.6 °F 44.6 °F 38% 30.27 in 8.0 mi South 5.8 mph - N/A   Overcast
11:43 PM 71.6 °F 44.6 °F 38% 30.30 in 8.0 mi NW 3.5 mph - N/A   Overcast